Overview Statistics Trail Chart Weather Telemetry Raw packets
 

This is the latest recevied weather packets stored in our database for station/object K9MWD. If no packets are shown the sender has not sent any weather packets the latest 10 day(s).

<< 13 14 15 16 17 18 19 >>
Time Temp. Humidity Pressure Rain* Wind** Luminosity Snow
1788543134 33.33° C 53% 1014.6 hPa 0 mm - 837 W/m² -
1788542831 33.89° C 55% 1014.8 hPa 0 mm - 836 W/m² -
1788542530 34.44° C 52% 1014.8 hPa 0 mm - 836 W/m² -
1788542225 34.44° C 51% 1015 hPa 0 mm - 821 W/m² -
1788541920 34.44° C 54% 1015.1 hPa 0 mm - 839 W/m² -
1788541617 33.89° C 55% 1015.1 hPa 0 mm - 809 W/m² -
1788541312 33.33° C 55% 1015.1 hPa 0 mm - 808 W/m² -
1788541011 32.78° C 57% 1015.1 hPa 0 mm - 793 W/m² -
1788540710 32.78° C 58% 1015 hPa 0 mm - 784 W/m² -
1788540405 33.33° C 58% 1015 hPa 0 mm - 795 W/m² -
1788540100 33.89° C 55% 1015.3 hPa 0 mm - 784 W/m² -
1788539796 33.89° C 56% 1015.3 hPa 0 mm - 759 W/m² -
1788539492 32.78° C 56% 1015.1 hPa 0 mm - 742 W/m² -
1788539192 33.33° C 56% 1015 hPa 0 mm - 731 W/m² -
1788538891 32.78° C 56% 1015.4 hPa 0 mm - 721 W/m² -
1788538587 32.22° C 57% 1015.2 hPa 0 mm - 706 W/m² -
1788538282 32.22° C 57% 1015.2 hPa 0 mm - 694 W/m² -
1788537978 32.22° C 57% 1015.5 hPa 0 mm - 681 W/m² -
1788537673 31.67° C 59% 1015.2 hPa 0 mm - 667 W/m² -
1788537368 32.22° C 59% 1015.3 hPa 0 mm - 650 W/m² -
1788537063 32.22° C 59% 1015.2 hPa 0 mm - 635 W/m² -
1788536762 31.11° C 63% 1015.3 hPa 0 mm - 625 W/m² -
1788536456 30.56° C 62% 1015.2 hPa 0 mm - 616 W/m² -
1788536156 30.56° C 62% 1015.1 hPa 0 mm - 597 W/m² -
1788535853 30.56° C 66% 1015.1 hPa 0 mm - 587 W/m² -

* Rain latest hour (hover to see other rain measurements)
** Current wind speed in m/s (hover to see current wind gust speed)